| time (UTC) | temp F | wind direction | speed MPH | gust MPH | rain 1hr in | rain 24hr in | rain mn in | humidity % | barometer mb |
| 20260902162156 | 82 | 290 | 4.0 | 9.0 | 0.00 | 0.00 | 0.00 | 51 | 1017.4 |
| 20260902161701 | 83 | 257 | 4.0 | 9.0 | 0.00 | 0.00 | 0.00 | 50 | 1017.4 |
| 20260902161152 | 83 | 261 | 5.0 | 9.0 | 0.00 | 0.00 | 0.00 | 49 | 1017.5 |
| 20260902160724 | 83 | 263 | 6.0 | 9.0 | 0.00 | 0.00 | 0.00 | 50 | 1017.5 |
| 20260902160206 | 83 | 276 | 5.0 | 7.0 | 0.00 | 0.00 | 0.00 | 49 | 1017.5 |
| 20260902155653 | 83 | 269 | 4.0 | 8.0 | 0.00 | 0.00 | 0.00 | 50 | 1017.5 |
| 20260902155202 | 84 | 264 | 5.0 | 8.0 | 0.00 | 0.00 | 0.00 | 49 | 1017.5 |
| 20260902154650 | 84 | 280 | 5.0 | 9.0 | 0.00 | 0.00 | 0.00 | 49 | 1017.6 |
| 20260902154202 | 84 | 244 | 6.0 | 8.0 | 0.00 | 0.00 | 0.00 | 48 | 1017.6 |
| 20260902153713 | 84 | 246 | 6.0 | 8.0 | 0.00 | 0.00 | 0.00 | 49 | 1017.6 |
| 20260902153154 | 84 | 268 | 4.0 | 8.0 | 0.00 | 0.00 | 0.00 | 50 | 1017.7 |
| 20260902152649 | 84 | 257 | 5.0 | 8.0 | 0.00 | 0.00 | 0.00 | 49 | 1017.7 |
| 20260902152203 | 84 | 234 | 4.0 | 8.0 | 0.00 | 0.00 | 0.00 | 51 | 1017.7 |
| 20260902151653 | 84 | 267 | 4.0 | 7.0 | 0.00 | 0.00 | 0.00 | 49 | 1017.7 |
| 20260902151200 | 84 | 294 | 5.0 | 8.0 | 0.00 | 0.00 | 0.00 | 50 | 1017.7 |
| 20260902150650 | 84 | 255 | 3.0 | 8.0 | 0.00 | 0.00 | 0.00 | 49 | 1017.8 |
| 20260902150150 | 84 | 277 | 2.0 | 7.0 | 0.00 | 0.00 | 0.00 | 51 | 1017.8 |
| 20260902145702 | 83 | 269 | 4.0 | 5.0 | 0.00 | 0.00 | 0.00 | 50 | 1017.9 |
| 20260902145155 | 84 | 223 | 4.0 | 6.0 | 0.00 | 0.00 | 0.00 | 50 | 1018.0 |
| 20260902144703 | 83 | 300 | 3.0 | 6.0 | 0.00 | 0.00 | 0.00 | 49 | 1018.0 |
| 20260902144151 | 84 | 282 | 2.0 | 6.0 | 0.00 | 0.00 | 0.00 | 50 | 1018.1 |
| 20260902143702 | 84 | 250 | 2.0 | 6.0 | 0.00 | 0.00 | 0.00 | 51 | 1018.1 |
| 20260902143218 | 83 | 269 | 4.0 | 6.0 | 0.00 | 0.00 | 0.00 | 51 | 1018.2 |
| 20260902142708 | 83 | 297 | 3.0 | 8.0 | 0.00 | 0.00 | 0.00 | 50 | 1018.2 |
| 20260902142157 | 83 | 248 | 4.0 | 8.0 | 0.00 | 0.00 | 0.00 | 50 | 1018.2 |
| 20260902141649 | 84 | 277 | 3.0 | 8.0 | 0.00 | 0.00 | 0.00 | 49 | 1018.2 |
| 20260902141157 | 83 | 253 | 3.0 | 8.0 | 0.00 | 0.00 | 0.00 | 49 | 1018.3 |
| 20260902140651 | 84 | 287 | 3.0 | 7.0 | 0.00 | 0.00 | 0.00 | 49 | 1018.3 |
| 20260902140207 | 83 | 260 | 4.0 | 7.0 | 0.00 | 0.00 | 0.00 | 48 | 1018.3 |
| 20260902135658 | 83 | 270 | 4.0 | 7.0 | 0.00 | 0.00 | 0.00 | 48 | 1018.4 |
| 20260902135145 | 83 | 237 | 4.0 | 9.0 | 0.00 | 0.00 | 0.00 | 50 | 1018.4 |
| 20260902134658 | 82 | 253 | 5.0 | 9.0 | 0.00 | 0.00 | 0.00 | 50 | 1018.4 |
| 20260902134147 | 83 | 275 | 4.0 | 7.0 | 0.00 | 0.00 | 0.00 | 50 | 1018.5 |
| 20260902133654 | 83 | 284 | 4.0 | 8.0 | 0.00 | 0.00 | 0.00 | 53 | 1018.5 |
| 20260902133145 | 83 | 287 | 5.0 | 8.0 | 0.00 | 0.00 | 0.00 | 51 | 1018.5 |
| 20260902132657 | 82 | 188 | 4.0 | 8.0 | 0.00 | 0.00 | 0.00 | 53 | 1018.6 |
| 20260902132150 | 83 | 234 | 6.0 | 9.0 | 0.00 | 0.00 | 0.00 | 51 | 1018.8 |
| 20260902131701 | 83 | 226 | 3.0 | 7.0 | 0.00 | 0.00 | 0.00 | 54 | 1018.8 |
| 20260902131152 | 82 | 211 | 5.0 | 7.0 | 0.00 | 0.00 | 0.00 | 54 | 1018.8 |
| 20260902130703 | 82 | 245 | 5.0 | 8.0 | 0.00 | 0.00 | 0.00 | 54 | 1018.9 |
| 20260902130158 | 82 | 279 | 4.0 | 8.0 | 0.00 | 0.00 | 0.00 | 54 | 1018.9 |
| 20260902125709 | 82 | 263 | 3.0 | 9.0 | 0.00 | 0.00 | 0.00 | 53 | 1019.0 |
| 20260902125202 | 83 | 246 | 6.0 | 9.0 | 0.00 | 0.00 | 0.00 | 52 | 1018.9 |
| 20260902124652 | 82 | 282 | 2.0 | 8.0 | 0.00 | 0.00 | 0.00 | 54 | 1019.0 |
| 20260902124200 | 82 | 277 | 3.0 | 8.0 | 0.00 | 0.00 | 0.00 | 56 | 1019.1 |
| 20260902123645 | 82 | 244 | 1.0 | 8.0 | 0.00 | 0.00 | 0.00 | 55 | 1019.2 |
| 20260902123154 | 82 | 258 | 6.0 | 8.0 | 0.00 | 0.00 | 0.00 | 53 | 1019.3 |
| 20260902122649 | 82 | 218 | 4.0 | 5.0 | 0.00 | 0.00 | 0.00 | 56 | 1019.3 |
| 20260902122225 | 82 | 217 | 3.0 | 6.0 | 0.00 | 0.00 | 0.00 | 56 | 1019.4 |
| 20260902121653 | 82 | 257 | 2.0 | 6.0 | 0.00 | 0.00 | 0.00 | 57 | 1019.4 |
| 20260902121144 | 82 | 275 | 3.0 | 6.0 | 0.00 | 0.00 | 0.00 | 58 | 1019.4 |
| 20260902120657 | 81 | 285 | 3.0 | 7.0 | 0.00 | 0.00 | 0.00 | 58 | 1019.4 |
| 20260902120152 | 81 | 283 | 5.0 | 8.0 | 0.00 | 0.00 | 0.00 | 58 | 1019.5 |
| 20260902115701 | 80 | 282 | 3.0 | 8.0 | 0.00 | 0.00 | 0.00 | 59 | 1019.6 |
| 20260902115152 | 81 | 312 | 3.0 | 7.0 | 0.00 | 0.00 | 0.00 | 59 | 1019.6 |
| 20260902114722 | 81 | 330 | 4.0 | 7.0 | 0.00 | 0.00 | 0.00 | 59 | 1019.7 |
| 20260902114154 | 81 | 319 | 4.0 | 9.0 | 0.00 | 0.00 | 0.00 | 59 | 1019.7 |
| 20260902113648 | 80 | 240 | 4.0 | 9.0 | 0.00 | 0.00 | 0.00 | 61 | 1019.7 |
| 20260902113146 | 80 | 268 | 3.0 | 5.0 | 0.00 | 0.00 | 0.00 | 61 | 1019.7 |
| 20260902112654 | 80 | 269 | 3.0 | 7.0 | 0.00 | 0.00 | 0.00 | 59 | 1019.8 |
| 20260902112145 | 80 | 212 | 6.0 | 7.0 | 0.00 | 0.00 | 0.00 | 59 | 1019.8 |
| 20260902111656 | 80 | 239 | 4.0 | 8.0 | 0.00 | 0.00 | 0.00 | 61 | 1019.9 |
| 20260902111147 | 79 | 257 | 5.0 | 8.0 | 0.00 | 0.00 | 0.00 | 62 | 1020.0 |
| 20260902110659 | 79 | 254 | 5.0 | 8.0 | 0.00 | 0.00 | 0.00 | 60 | 1020.0 |
| 20260902110157 | 80 | 272 | 4.0 | 7.0 | 0.00 | 0.00 | 0.00 | 59 | 1019.9 |
| 20260902105705 | 80 | 276 | 3.0 | 6.0 | 0.00 | 0.00 | 0.00 | 61 | 1020.0 |
| 20260902105154 | 80 | 291 | 3.0 | 6.0 | 0.00 | 0.00 | 0.00 | 61 | 1020.0 |
| 20260902104703 | 80 | 248 | 2.0 | 5.0 | 0.00 | 0.00 | 0.00 | 61 | 1020.0 |
| 20260902104213 | 79 | 246 | 2.0 | 6.0 | 0.00 | 0.00 | 0.00 | 62 | 1020.1 |
| 20260902103704 | 78 | 245 | 4.0 | 6.0 | 0.00 | 0.00 | 0.00 | 63 | 1020.2 |
| 20260902103224 | 79 | 264 | 3.0 | 5.0 | 0.00 | 0.00 | 0.00 | 63 | 1020.2 |
| 20260902102650 | 78 | 253 | 2.0 | 5.0 | 0.00 | 0.00 | 0.00 | 64 | 1020.4 |
| 20260902102201 | 77 | 254 | 3.0 | 8.0 | 0.00 | 0.00 | 0.00 | 64 | 1020.4 |
| 20260902101648 | 77 | 253 | 6.0 | 8.0 | 0.00 | 0.00 | 0.00 | 64 | 1020.5 |
| 20260902101200 | 78 | 254 | 5.0 | 8.0 | 0.00 | 0.00 | 0.00 | 66 | 1020.5 |
| 20260902100650 | 78 | 248 | 4.0 | 8.0 | 0.00 | 0.00 | 0.00 | 65 | 1020.5 |
| 20260902100151 | 79 | 254 | 4.0 | 8.0 | 0.00 | 0.00 | 0.00 | 64 | 1020.5 |
| 20260902095659 | 79 | 241 | 2.0 | 7.0 | 0.00 | 0.00 | 0.00 | 61 | 1020.6 |
| 20260902095153 | 80 | 119 | 2.0 | 4.0 | 0.00 | 0.00 | 0.00 | 59 | 1020.5 |
| 20260902094647 | 79 | 119 | 1.0 | 4.0 | 0.00 | 0.00 | 0.00 | 63 | 1020.5 |
| 20260902094159 | 78 | 121 | 3.0 | 5.0 | 0.00 | 0.00 | 0.00 | 62 | 1020.5 |
| 20260902093650 | 79 | 117 | 2.0 | 5.0 | 0.00 | 0.00 | 0.00 | 61 | 1020.5 |
| 20260902093151 | 79 | 121 | 3.0 | 5.0 | 0.00 | 0.00 | 0.00 | 61 | 1020.6 |
| 20260902092703 | 78 | 119 | 3.0 | 5.0 | 0.00 | 0.00 | 0.00 | 61 | 1020.5 |
| 20260902092151 | 78 | 119 | 3.0 | 5.0 | 0.00 | 0.00 | 0.00 | 62 | 1020.5 |
| 20260902091720 | 77 | 114 | 1.0 | 5.0 | 0.00 | 0.00 | 0.00 | 61 | 1020.6 |
| 20260902091149 | 78 | 113 | 3.0 | 7.0 | 0.00 | 0.00 | 0.00 | 60 | 1020.6 |
| 20260902090724 | 78 | 115 | 4.0 | 7.0 | 0.00 | 0.00 | 0.00 | 62 | 1020.5 |
| 20260902090144 | 77 | 99 | 3.0 | 7.0 | 0.00 | 0.00 | 0.00 | 60 | 1020.6 |
| 20260902085714 | 77 | 148 | 3.0 | 6.0 | 0.00 | 0.00 | 0.00 | 64 | 1020.6 |
| 20260902085146 | 77 | 107 | 3.0 | 7.0 | 0.00 | 0.00 | 0.00 | 62 | 1020.6 |
| 20260902084655 | 77 | 96 | 4.0 | 7.0 | 0.00 | 0.00 | 0.00 | 64 | 1020.7 |
| 20260902084151 | 76 | 141 | 2.0 | 7.0 | 0.00 | 0.00 | 0.00 | 63 | 1020.6 |
| 20260902083659 | 77 | 131 | 3.0 | 5.0 | 0.00 | 0.00 | 0.00 | 62 | 1020.6 |
| 20260902083203 | 76 | 121 | 3.0 | 6.0 | 0.00 | 0.00 | 0.00 | 64 | 1020.7 |
| 20260902082653 | 76 | 130 | 1.0 | 4.0 | 0.00 | 0.00 | 0.00 | 66 | 1020.7 |
| 20260902082203 | 76 | 130 | 1.0 | 4.0 | 0.00 | 0.00 | 0.00 | 69 | 1020.6 |
| 20260902081651 | 75 | 132 | 2.0 | 4.0 | 0.00 | 0.00 | 0.00 | 71 | 1020.6 |
| 20260902081157 | 75 | 134 | 1.0 | 4.0 | 0.00 | 0.00 | 0.00 | 73 | 1020.6 |
| 20260902080651 | 74 | 134 | 2.0 | 4.0 | 0.00 | 0.00 | 0.00 | 72 | 1020.5 |
| 20260902080154 | 74 | 134 | 1.0 | 4.0 | 0.00 | 0.00 | 0.00 | 73 | 1020.5 |
| 20260902075646 | 74 | 133 | 1.0 | 3.0 | 0.00 | 0.00 | 0.00 | 72 | 1020.4 |
| 20260902075158 | 74 | 134 | 2.0 | 3.0 | 0.00 | 0.00 | 0.00 | 71 | 1020.4 |
| 20260902074646 | 75 | 133 | 1.0 | 4.0 | 0.00 | 0.00 | 0.00 | 71 | 1020.4 |
| 20260902074200 | 75 | 133 | 1.0 | 4.0 | 0.00 | 0.00 | 0.00 | 70 | 1020.3 |
| 20260902073710 | 76 | 129 | 2.0 | 7.0 | 0.00 | 0.00 | 0.00 | 69 | 1020.3 |
| 20260902073211 | 75 | 126 | 4.0 | 7.0 | 0.00 | 0.00 | 0.00 | 67 | 1020.3 |
| 20260902072702 | 75 | 92 | 3.0 | 6.0 | 0.00 | 0.00 | 0.00 | 69 | 1020.3 |
| 20260902072154 | 75 | 68 | 1.0 | 2.0 | 0.00 | 0.00 | 0.00 | 69 | 1020.3 |
| 20260902071702 | 75 | 68 | 1.0 | 3.0 | 0.00 | 0.00 | 0.00 | 72 | 1020.3 |
| 20260902071152 | 74 | 68 | 0.0 | 4.0 | 0.00 | 0.00 | 0.00 | 73 | 1020.2 |
| 20260902070644 | 74 | 68 | 2.0 | 4.0 | 0.00 | 0.00 | 0.00 | 73 | 1020.2 |
| 20260902070142 | 74 | 65 | 1.0 | 3.0 | 0.00 | 0.00 | 0.00 | 74 | 1020.1 |
| 20260902065648 | 74 | 64 | 0.0 | 2.0 | 0.00 | 0.00 | 0.00 | 74 | 1020.1 |
| 20260902065200 | 74 | 64 | 0.0 | 4.0 | 0.00 | 0.00 | 0.00 | 75 | 1020.1 |
| 20260902064650 | 73 | 64 | 2.0 | 4.0 | 0.00 | 0.00 | 0.00 | 74 | 1020.1 |
| 20260902064158 | 73 | 63 | 1.0 | 4.0 | 0.00 | 0.00 | 0.00 | 75 | 1020.0 |
| 20260902063707 | 73 | 62 | 0.0 | 3.0 | 0.00 | 0.00 | 0.00 | 75 | 1020.1 |
| 20260902063201 | 73 | 62 | 1.0 | 4.0 | 0.00 | 0.00 | 0.00 | 75 | 1020.0 |
| 20260902062714 | 73 | 62 | 2.0 | 3.0 | 0.00 | 0.00 | 0.00 | 74 | 1020.0 |
| 20260902062206 | 73 | 62 | 0.0 | 3.0 | 0.00 | 0.00 | 0.00 | 74 | 1020.1 |
| 20260902061659 | 72 | 62 | 2.0 | 3.0 | 0.00 | 0.00 | 0.00 | 73 | 1020.0 |
| 20260902061151 | 72 | 62 | 1.0 | 2.0 | 0.00 | 0.00 | 0.00 | 74 | 1020.0 |
| 20260902060646 | 72 | 62 | 1.0 | 3.0 | 0.00 | 0.00 | 0.00 | 75 | 1020.0 |
| 20260902060147 | 72 | 62 | 1.0 | 2.0 | 0.00 | 0.00 | 0.00 | 74 | 1019.9 |
| 20260902055720 | 71 | 62 | 0.0 | 2.0 | 0.00 | 0.00 | 0.00 | 76 | 1020.0 |
| 20260902055213 | 71 | 62 | 0.0 | 2.0 | 0.00 | 0.00 | 0.00 | 77 | 1019.8 |
| 20260902054705 | 71 | 62 | 1.0 | 3.0 | 0.00 | 0.00 | 0.00 | 77 | 1019.8 |
| 20260902054214 | 70 | 62 | 1.0 | 4.0 | 0.00 | 0.00 | 0.00 | 77 | 1019.8 |
| 20260902053645 | 70 | 62 | 2.0 | 4.0 | 0.00 | 0.00 | 0.00 | 78 | 1019.7 |
| 20260902053200 | 70 | 62 | 1.0 | 2.0 | 0.00 | 0.00 | 0.00 | 77 | 1019.7 |
| 20260902052718 | 70 | 62 | 0.0 | 2.0 | 0.00 | 0.00 | 0.00 | 77 | 1019.8 |
| 20260902052146 | 70 | 62 | 0.0 | 2.0 | 0.00 | 0.00 | 0.00 | 78 | 1019.6 |
| 20260902051701 | 70 | 62 | 1.0 | 2.0 | 0.00 | 0.00 | 0.00 | 77 | 1019.6 |
| 20260902051155 | 70 | 62 | 0.0 | 2.0 | 0.00 | 0.00 | 0.00 | 77 | 1019.5 |
| 20260902050646 | 70 | 62 | 1.0 | 2.0 | 0.00 | 0.00 | 0.00 | 78 | 1019.5 |
| 20260902050147 | 70 | 62 | 0.0 | 1.0 | 0.00 | 0.00 | 0.00 | 77 | 1019.5 |
| 20260902045654 | 70 | 62 | 1.0 | 1.0 | 0.00 | 0.00 | 0.00 | 78 | 1019.5 |
| 20260902045146 | 70 | 62 | 0.0 | 2.0 | 0.00 | 0.00 | 0.00 | 78 | 1019.5 |
| 20260902044659 | 70 | 62 | 1.0 | 2.0 | 0.00 | 0.00 | 0.00 | 78 | 1019.5 |
| 20260902044147 | 70 | 62 | 0.0 | 2.0 | 0.00 | 0.00 | 0.00 | 79 | 1019.5 |
| 20260902043701 | 70 | 62 | 0.0 | 2.0 | 0.00 | 0.00 | 0.00 | 79 | 1019.5 |
| 20260902043200 | 70 | 62 | 0.0 | 2.0 | 0.00 | 0.00 | 0.00 | 79 | 1019.4 |
| 20260902042653 | 70 | 62 | 1.0 | 2.0 | 0.00 | 0.00 | 0.00 | 79 | 1019.4 |
| 20260902042219 | 70 | 62 | 0.0 | 3.0 | 0.00 | 0.00 | 0.00 | 79 | 1019.4 |
| 20260902041648 | 70 | 62 | 1.0 | 3.0 | 0.00 | 0.00 | 0.00 | 79 | 1019.3 |
| 20260902041222 | 70 | 62 | 2.0 | 3.0 | 0.00 | 0.00 | 0.00 | 79 | 1019.3 |
| 20260902040654 | 70 | 62 | 0.0 | 3.0 | 0.00 | 0.00 | 0.00 | 79 | 1019.3 |
| 20260902040158 | 70 | 62 | 1.0 | 3.0 | 0.00 | 0.00 | 0.00 | 79 | 1019.3 |
| 20260902035650 | 70 | 62 | 1.0 | 4.0 | 0.00 | 0.00 | 0.00 | 79 | 1019.3 |
| 20260902035157 | 70 | 62 | 3.0 | 4.0 | 0.00 | 0.00 | 0.00 | 79 | 1019.3 |
| 20260902034648 | 70 | 62 | 2.0 | 3.0 | 0.00 | 0.00 | 0.00 | 79 | 1019.3 |
| 20260902034201 | 70 | 62 | 1.0 | 2.0 | 0.00 | 0.00 | 0.00 | 78 | 1019.3 |
| 20260902033652 | 70 | 62 | 1.0 | 2.0 | 0.00 | 0.00 | 0.00 | 78 | 1019.3 |
| 20260902033154 | 70 | 62 | 1.0 | 2.0 | 0.00 | 0.00 | 0.00 | 78 | 1019.3 |
| 20260902032723 | 70 | 62 | 1.0 | 2.0 | 0.00 | 0.00 | 0.00 | 78 | 1019.4 |
| 20260902032158 | 70 | 62 | 1.0 | 3.0 | 0.00 | 0.00 | 0.00 | 78 | 1019.4 |
| 20260902031647 | 70 | 62 | 1.0 | 3.0 | 0.00 | 0.00 | 0.00 | 78 | 1019.4 |
| 20260902031158 | 70 | 62 | 1.0 | 4.0 | 0.00 | 0.00 | 0.00 | 78 | 1019.4 |
| 20260902030654 | 70 | 63 | 2.0 | 5.0 | 0.00 | 0.00 | 0.00 | 78 | 1019.3 |
| 20260902030155 | 70 | 63 | 3.0 | 5.0 | 0.00 | 0.00 | 0.00 | 78 | 1019.3 |
| 20260902025702 | 70 | 63 | 1.0 | 3.0 | 0.00 | 0.00 | 0.00 | 78 | 1019.3 |
| 20260902025212 | 70 | 63 | 1.0 | 4.0 | 0.00 | 0.00 | 0.00 | 77 | 1019.3 |
| 20260902024646 | 70 | 63 | 2.0 | 4.0 | 0.00 | 0.00 | 0.00 | 77 | 1019.3 |
| 20260902024151 | 71 | 63 | 2.0 | 4.0 | 0.00 | 0.00 | 0.00 | 77 | 1019.3 |
| 20260902023708 | 71 | 63 | 1.0 | 3.0 | 0.00 | 0.00 | 0.00 | 78 | 1019.3 |
| 20260902023212 | 71 | 63 | 2.0 | 3.0 | 0.00 | 0.00 | 0.00 | 77 | 1019.3 |
| 20260902022703 | 71 | 63 | 0.0 | 0.0 | 0.00 | 0.00 | 0.00 | 77 | 1019.3 |
| 20260902022155 | 71 | 63 | 0.0 | 3.0 | 0.00 | 0.00 | 0.00 | 78 | 1019.3 |
| 20260902021646 | 71 | 63 | 2.0 | 3.0 | 0.00 | 0.00 | 0.00 | 79 | 1019.4 |
| 20260902021155 | 71 | 63 | 2.0 | 3.0 | 0.00 | 0.00 | 0.00 | 78 | 1019.3 |
| 20260902020646 | 71 | 63 | 0.0 | 0.0 | 0.00 | 0.00 | 0.00 | 78 | 1019.3 |
| 20260902020150 | 71 | 63 | 0.0 | 0.0 | 0.00 | 0.00 | 0.00 | 79 | 1019.3 |
| 20260902015724 | 71 | 63 | 0.0 | 0.0 | 0.00 | 0.00 | 0.00 | 80 | 1019.2 |
| 20260902015216 | 71 | 63 | 0.0 | 0.0 | 0.00 | 0.00 | 0.00 | 80 | 1019.2 |
| 20260902014652 | 71 | 63 | 0.0 | 1.0 | 0.00 | 0.00 | 0.00 | 79 | 1019.2 |
| 20260902014144 | 71 | 63 | 0.0 | 1.0 | 0.00 | 0.00 | 0.00 | 79 | 1019.3 |
| 20260902013653 | 71 | 63 | 1.0 | 2.0 | 0.00 | 0.00 | 0.00 | 79 | 1019.3 |
| 20260902013152 | 71 | 63 | 1.0 | 2.0 | 0.00 | 0.00 | 0.00 | 78 | 1019.3 |
| 20260902012703 | 71 | 63 | 1.0 | 2.0 | 0.00 | 0.00 | 0.00 | 79 | 1019.3 |
| 20260902012211 | 71 | 63 | 1.0 | 3.0 | 0.00 | 0.00 | 0.00 | 78 | 1019.3 |
| 20260902011701 | 71 | 63 | 2.0 | 3.0 | 0.00 | 0.00 | 0.00 | 78 | 1019.4 |
| 20260902011215 | 71 | 63 | 2.0 | 3.0 | 0.00 | 0.00 | 0.00 | 77 | 1019.4 |
| 20260902010701 | 71 | 63 | 0.0 | 0.0 | 0.00 | 0.00 | 0.00 | 77 | 1019.4 |
| 20260902010158 | 71 | 63 | 0.0 | 0.0 | 0.00 | 0.00 | 0.00 | 77 | 1019.4 |
| 20260902005650 | 71 | 63 | 0.0 | 3.0 | 0.00 | 0.00 | 0.00 | 76 | 1019.4 |
| 20260902005142 | 71 | 63 | 1.0 | 3.0 | 0.00 | 0.00 | 0.00 | 76 | 1019.3 |
| 20260902004656 | 71 | 63 | 2.0 | 3.0 | 0.00 | 0.00 | 0.00 | 77 | 1019.3 |
| 20260902004148 | 71 | 63 | 0.0 | 3.0 | 0.00 | 0.00 | 0.00 | 76 | 1019.3 |
| 20260902003701 | 71 | 63 | 1.0 | 3.0 | 0.00 | 0.00 | 0.00 | 76 | 1019.3 |
| 20260902003156 | 71 | 63 | 1.0 | 3.0 | 0.00 | 0.00 | 0.00 | 76 | 1019.4 |
| 20260902002646 | 71 | 63 | 1.0 | 3.0 | 0.00 | 0.00 | 0.00 | 76 | 1019.5 |
| 20260902002157 | 72 | 63 | 0.0 | 2.0 | 0.00 | 0.00 | 0.00 | 77 | 1019.5 |
| 20260902001650 | 72 | 63 | 1.0 | 2.0 | 0.00 | 0.00 | 0.00 | 76 | 1019.5 |
| 20260902001203 | 72 | 63 | 0.0 | 2.0 | 0.00 | 0.00 | 0.00 | 76 | 1019.5 |
| 20260902000655 | 72 | 63 | 1.0 | 1.0 | 0.00 | 0.00 | 0.00 | 76 | 1019.5 |
| 20260902000158 | 72 | 63 | 0.0 | 1.0 | 0.00 | 0.00 | 0.00 | 75 | 1019.5 |
| 20260901235646 | 72 | 63 | 0.0 | 3.0 | 0.00 | 0.00 | 0.00 | 74 | 1019.4 |
| 20260901235205 | 72 | 63 | 1.0 | 3.0 | 0.00 | 0.00 | 0.00 | 74 | 1019.4 |
| 20260901234655 | 72 | 63 | 1.0 | 3.0 | 0.00 | 0.00 | 0.00 | 73 | 1019.4 |
| 20260901234146 | 73 | 63 | 0.0 | 3.0 | 0.00 | 0.00 | 0.00 | 73 | 1019.3 |
| 20260901233702 | 73 | 63 | 1.0 | 3.0 | 0.00 | 0.00 | 0.00 | 73 | 1019.4 |
| 20260901233203 | 73 | 63 | 1.0 | 3.0 | 0.00 | 0.00 | 0.00 | 73 | 1019.4 |
| 20260901232653 | 73 | 63 | 1.0 | 3.0 | 0.00 | 0.00 | 0.00 | 73 | 1019.3 |
| 20260901232204 | 73 | 63 | 1.0 | 3.0 | 0.00 | 0.00 | 0.00 | 73 | 1019.4 |
| 20260901231654 | 73 | 63 | 0.0 | 3.0 | 0.00 | 0.00 | 0.00 | 73 | 1019.5 |
| 20260901231147 | 73 | 63 | 0.0 | 3.0 | 0.00 | 0.00 | 0.00 | 73 | 1019.5 |
| 20260901230659 | 73 | 63 | 0.0 | 4.0 | 0.00 | 0.00 | 0.00 | 73 | 1019.5 |
| 20260901230203 | 73 | 63 | 3.0 | 4.0 | 0.00 | 0.00 | 0.00 | 73 | 1019.5 |
| 20260901225656 | 73 | 63 | 1.0 | 3.0 | 0.00 | 0.00 | 0.00 | 73 | 1019.5 |
| 20260901225149 | 73 | 63 | 2.0 | 3.0 | 0.00 | 0.00 | 0.00 | 73 | 1019.4 |
| 20260901224703 | 73 | 63 | 0.0 | 2.0 | 0.00 | 0.00 | 0.00 | 73 | 1019.5 |
| 20260901224153 | 73 | 63 | 1.0 | 3.0 | 0.00 | 0.00 | 0.00 | 72 | 1019.5 |
| 20260901223700 | 73 | 63 | 1.0 | 3.0 | 0.00 | 0.00 | 0.00 | 72 | 1019.5 |
| 20260901223200 | 73 | 63 | 2.0 | 3.0 | 0.00 | 0.00 | 0.00 | 72 | 1019.4 |
| 20260901222648 | 74 | 63 | 0.0 | 3.0 | 0.00 | 0.00 | 0.00 | 71 | 1019.4 |
| 20260901222159 | 74 | 63 | 1.0 | 3.0 | 0.00 | 0.00 | 0.00 | 70 | 1019.4 |
| 20260901221648 | 74 | 63 | 2.0 | 4.0 | 0.00 | 0.00 | 0.00 | 70 | 1019.4 |
| 20260901221201 | 75 | 63 | 3.0 | 4.0 | 0.00 | 0.00 | 0.00 | 69 | 1019.4 |
| 20260901220713 | 75 | 64 | 1.0 | 4.0 | 0.00 | 0.00 | 0.00 | 68 | 1019.4 |
| 20260901220146 | 75 | 64 | 3.0 | 4.0 | 0.00 | 0.00 | 0.00 | 68 | 1019.4 |
| 20260901215658 | 74 | 64 | 3.0 | 7.0 | 0.00 | 0.00 | 0.00 | 69 | 1019.4 |
| 20260901215148 | 73 | 54 | 4.0 | 7.0 | 0.00 | 0.00 | 0.00 | 71 | 1019.5 |
| 20260901214719 | 73 | 45 | 4.0 | 6.0 | 0.00 | 0.00 | 0.00 | 73 | 1019.4 |
| 20260901214150 | 73 | 78 | 3.0 | 7.0 | 0.00 | 0.00 | 0.00 | 73 | 1019.5 |
| 20260901213701 | 73 | 75 | 3.0 | 8.0 | 0.00 | 0.00 | 0.00 | 72 | 1019.5 |
| 20260901213155 | 74 | 74 | 4.0 | 8.0 | 0.00 | 0.00 | 0.00 | 71 | 1019.5 |
| 20260901212704 | 74 | 337 | 1.0 | 2.0 | 0.00 | 0.00 | 0.00 | 70 | 1019.3 |
| 20260901212219 | 74 | 329 | 0.0 | 0.0 | 0.00 | 0.00 | 0.00 | 70 | 1019.2 |
| 20260901211651 | 74 | 329 | 0.0 | 1.0 | 0.00 | 0.00 | 0.00 | 69 | 1019.3 |
| 20260901211203 | 74 | 329 | 0.0 | 1.0 | 0.00 | 0.00 | 0.00 | 69 | 1019.2 |
| 20260901210655 | 74 | 329 | 0.0 | 0.0 | 0.00 | 0.00 | 0.00 | 69 | 1019.2 |
| 20260901210155 | 74 | 329 | 0.0 | 0.0 | 0.00 | 0.00 | 0.00 | 69 | 1019.3 |
| 20260901205705 | 74 | 329 | 0.0 | 0.0 | 0.00 | 0.00 | 0.00 | 69 | 1019.3 |
| 20260901205156 | 74 | 329 | 0.0 | 1.0 | 0.00 | 0.00 | 0.00 | 69 | 1019.4 |
| 20260901204707 | 74 | 329 | 0.0 | 1.0 | 0.00 | 0.00 | 0.00 | 69 | 1019.3 |
| 20260901204155 | 74 | 329 | 0.0 | 1.0 | 0.00 | 0.00 | 0.00 | 68 | 1019.3 |
| 20260901203703 | 74 | 329 | 0.0 | 1.0 | 0.00 | 0.00 | 0.00 | 68 | 1019.3 |
| 20260901203202 | 74 | 329 | 0.0 | 1.0 | 0.00 | 0.00 | 0.00 | 69 | 1019.3 |
| 20260901202711 | 74 | 329 | 1.0 | 2.0 | 0.00 | 0.00 | 0.00 | 69 | 1019.3 |
| 20260901202159 | 74 | 329 | 0.0 | 2.0 | 0.00 | 0.00 | 0.00 | 69 | 1019.4 |
| 20260901201648 | 74 | 329 | 1.0 | 2.0 | 0.00 | 0.00 | 0.00 | 69 | 1019.3 |
| 20260901201156 | 74 | 329 | 0.0 | 2.0 | 0.00 | 0.00 | 0.00 | 69 | 1019.3 |
| 20260901200702 | 74 | 329 | 1.0 | 2.0 | 0.00 | 0.00 | 0.00 | 68 | 1019.2 |
| 20260901200205 | 75 | 329 | 1.0 | 2.0 | 0.00 | 0.00 | 0.00 | 67 | 1019.1 |
| 20260901195655 | 75 | 329 | 1.0 | 1.0 | 0.00 | 0.00 | 0.00 | 67 | 1019.2 |
| 20260901195148 | 75 | 329 | 1.0 | 2.0 | 0.00 | 0.00 | 0.00 | 67 | 1019.1 |
| 20260901194716 | 75 | 329 | 1.0 | 2.0 | 0.00 | 0.00 | 0.00 | 66 | 1019.1 |
| 20260901194203 | 76 | 329 | 1.0 | 2.0 | 0.00 | 0.00 | 0.00 | 65 | 1019.0 |
| 20260901193654 | 76 | 329 | 0.0 | 2.0 | 0.00 | 0.00 | 0.00 | 64 | 1019.0 |
| 20260901193155 | 76 | 329 | 0.0 | 2.0 | 0.00 | 0.00 | 0.00 | 64 | 1019.0 |
| 20260901192704 | 76 | 329 | 0.0 | 2.0 | 0.00 | 0.00 | 0.00 | 65 | 1018.9 |
| 20260901192159 | 76 | 329 | 0.0 | 3.0 | 0.00 | 0.00 | 0.00 | 64 | 1018.9 |
| 20260901191647 | 75 | 329 | 1.0 | 4.0 | 0.00 | 0.00 | 0.00 | 65 | 1018.8 |
| 20260901191157 | 75 | 328 | 3.0 | 4.0 | 0.00 | 0.00 | 0.00 | 65 | 1018.8 |
| 20260901190725 | 75 | 327 | 1.0 | 3.0 | 0.00 | 0.00 | 0.00 | 65 | 1018.7 |
| 20260901190209 | 76 | 327 | 1.0 | 3.0 | 0.00 | 0.00 | 0.00 | 65 | 1018.6 |
| 20260901185701 | 76 | 327 | 1.0 | 3.0 | 0.00 | 0.00 | 0.00 | 65 | 1018.6 |
| 20260901185152 | 76 | 327 | 1.0 | 4.0 | 0.00 | 0.00 | 0.00 | 64 | 1018.6 |
| 20260901184659 | 76 | 327 | 2.0 | 4.0 | 0.00 | 0.00 | 0.00 | 64 | 1018.5 |
| 20260901184229 | 76 | 327 | 4.0 | 4.0 | 0.00 | 0.00 | 0.00 | 63 | 1018.5 |
| 20260901183657 | 76 | 214 | 3.0 | 4.0 | 0.00 | 0.00 | 0.00 | 63 | 1018.5 |
| 20260901183159 | 76 | 209 | 1.0 | 4.0 | 0.00 | 0.00 | 0.00 | 64 | 1018.4 |
| 20260901182710 | 76 | 207 | 3.0 | 4.0 | 0.00 | 0.00 | 0.00 | 63 | 1018.4 |
| 20260901182203 | 76 | 201 | 2.0 | 4.0 | 0.00 | 0.00 | 0.00 | 63 | 1018.4 |
| 20260901181713 | 76 | 201 | 2.0 | 4.0 | 0.00 | 0.00 | 0.00 | 64 | 1018.3 |
| 20260901181227 | 76 | 201 | 3.0 | 4.0 | 0.00 | 0.00 | 0.00 | 64 | 1018.3 |
| 20260901180657 | 76 | 200 | 2.0 | 3.0 | 0.00 | 0.00 | 0.00 | 64 | 1018.4 |
| 20260901180155 | 76 | 200 | 1.0 | 5.0 | 0.00 | 0.00 | 0.00 | 64 | 1018.3 |
| 20260901175705 | 77 | 200 | 3.0 | 5.0 | 0.00 | 0.00 | 0.00 | 63 | 1018.2 |
| 20260901175156 | 77 | 196 | 4.0 | 5.0 | 0.00 | 0.00 | 0.00 | 63 | 1018.2 |
| 20260901174702 | 77 | 194 | 4.0 | 5.0 | 0.00 | 0.00 | 0.00 | 62 | 1018.1 |
| 20260901174155 | 77 | 194 | 3.0 | 4.0 | 0.00 | 0.00 | 0.00 | 62 | 1018.1 |
| 20260901173648 | 78 | 194 | 3.0 | 4.0 | 0.00 | 0.00 | 0.00 | 61 | 1018.1 |
| 20260901173149 | 78 | 194 | 3.0 | 4.0 | 0.00 | 0.00 | 0.00 | 60 | 1018.0 |
| 20260901172659 | 78 | 194 | 3.0 | 4.0 | 0.00 | 0.00 | 0.00 | 60 | 1018.0 |
| 20260901172150 | 79 | 194 | 2.0 | 4.0 | 0.00 | 0.00 | 0.00 | 60 | 1018.0 |
| 20260901171704 | 79 | 194 | 3.0 | 4.0 | 0.00 | 0.00 | 0.00 | 59 | 1018.0 |
| 20260901171155 | 80 | 194 | 1.0 | 3.0 | 0.00 | 0.00 | 0.00 | 58 | 1018.0 |
| 20260901170701 | 81 | 194 | 1.0 | 2.0 | 0.00 | 0.00 | 0.00 | 57 | 1017.9 |
| 20260901170157 | 81 | 194 | 1.0 | 2.0 | 0.00 | 0.00 | 0.00 | 56 | 1018.0 |
| 20260901165650 | 82 | 194 | 0.0 | 4.0 | 0.00 | 0.00 | 0.00 | 55 | 1018.0 |
| 20260901165226 | 82 | 194 | 1.0 | 4.0 | 0.00 | 0.00 | 0.00 | 54 | 1018.0 |
| 20260901164655 | 82 | 194 | 2.0 | 3.0 | 0.00 | 0.00 | 0.00 | 54 | 1017.9 |
| 20260901164209 | 82 | 194 | 1.0 | 4.0 | 0.00 | 0.00 | 0.00 | 53 | 1018.0 |
| 20260901163702 | 82 | 194 | 1.0 | 3.0 | 0.00 | 0.00 | 0.00 | 54 | 1018.0 |
| 20260901163158 | 82 | 194 | 2.0 | 5.0 | 0.00 | 0.00 | 0.00 | 55 | 1018.1 |
| 20260901162706 | 82 | 194 | 2.0 | 5.0 | 0.00 | 0.00 | 0.00 | 54 | 1018.1 |